Location: Key Biscayne
(25.6930°N, 80.1630°W)
Time: 07:19:10
(UTC-05:00)

Vanguard 1 - Visible Passes

Search period start: 21 January 2018 00:00
Search period end: 31 January 2018 00:00
Orbit: 649 x 3834 km, 34.2° (Epoch: 21 January)

Date Brightness Start Highest point End Pass type
(mag) Time Alt. Az. Time Alt. Az. Time Alt. Az.
21 Jan 12.5 02:52:45 49° ENE 02:52:45 49° ENE 03:07:14 10° E visible
21 Jan 12.3 05:05:27 38° WNW 05:13:51 83° SSW 05:37:14 10° ESE visible
22 Jan 12.2 03:12:39 61° ENE 03:12:39 61° ENE 03:29:46 10° E visible
22 Jan 12.4 05:25:22 30° WNW 05:35:26 72° SSW 05:58:39 10° SE visible
23 Jan 13.7 01:19:52 13° ENE 01:19:52 13° ENE 01:21:14 10° ENE visible
23 Jan 12.0 03:32:35 75° NE 03:32:35 75° NE 03:52:07 10° ESE visible
23 Jan 12.6 05:45:19 23° WNW 05:56:59 60° SSW 06:19:42 10° SE visible
24 Jan 13.5 01:39:50 19° E 01:39:50 19° E 01:43:40 10° E visible
24 Jan 11.8 03:52:33 85° NNW 03:53:06 87° NNE 04:14:13 10° ESE visible
24 Jan 12.9 06:05:17 16° W 06:18:32 49° SW 06:40:20 10° SSE visible
25 Jan 13.2 01:59:48 25° E 01:59:48 25° E 02:06:09 10° E visible
25 Jan 11.8 04:12:32 72° W 04:14:34 81° SSW 04:36:00 10° SE visible
25 Jan 13.1 06:25:16 10° W 06:40:07 39° SW 07:00:32 10° SSE visible
25 Jan 11.4 19:07:40 10° SSE 19:08:21 10° SE 19:09:03 10° SE visible
26 Jan 12.9 02:19:49 33° E 02:19:49 33° E 02:28:35 10° E visible
26 Jan 11.9 04:32:33 57° W 04:36:03 68° SSW 04:57:26 10° SE visible
26 Jan 10.8 19:25:55 10° SSW 19:29:11 20° SE 19:29:15 19° SE visible
27 Jan 12.7 02:39:51 41° E 02:39:51 41° E 02:50:52 10° ESE visible
27 Jan 12.1 04:52:35 44° WSW 04:57:33 56° SSW 05:18:28 10° SE visible
27 Jan 10.2 19:45:56 10° SSW 19:49:20 32° SSE 19:49:20 32° SSE visible
28 Jan 12.4 02:59:54 50° ESE 02:59:54 50° ESE 03:12:54 10° ESE visible
28 Jan 12.4 05:12:38 32° WSW 05:19:07 45° SSW 05:39:05 10° SSE visible
28 Jan 10.2 20:06:29 10° SW 20:09:25 38° SSW 20:09:25 38° SSW visible
29 Jan 12.2 03:19:58 57° SE 03:19:58 57° SE 03:34:37 10° SE visible
29 Jan 12.7 05:32:42 23° WSW 05:40:44 35° SW 05:59:14 10° SSE visible
29 Jan 11.0 20:27:22 10° WSW 20:29:28 28° WSW 20:29:28 28° WSW visible
30 Jan 13.7 01:27:18 11° E 01:27:18 11° E 01:27:55 10° E visible
30 Jan 12.1 03:40:02 57° S 03:40:02 57° S 03:55:59 10° SE visible
30 Jan 13.0 05:52:46 15° WSW 06:02:28 27° SW 06:18:45 10° SSE visible
30 Jan 10.8 18:28:53 10° SSW 18:32:56 23° SSE 18:36:29 10° E visible
30 Jan 11.8 20:48:29 10° W 20:49:32 17° W 20:49:32 17° W visible
